This is the latest recevied weather packets stored in our database for station/object IN3XSV-15. If no packets are shown the sender has not sent any weather packets the latest 10 day(s).
| Time | Temp. | Humidity | Pressure | Rain* | Wind** | Luminosity | Snow |
|---|---|---|---|---|---|---|---|
| 1777663507 | 5.56° C | 66% | 865.1 hPa | 0 mm | - | - | - |
| 1777663206 | 5.56° C | 66% | 865 hPa | 0 mm | - | - | - |
| 1777662907 | 5.56° C | 66% | 865 hPa | 0 mm | - | - | - |
| 1777662606 | 5.56° C | 66% | 865 hPa | 0 mm | - | - | - |
| 1777662306 | 5° C | 65% | 865 hPa | 0 mm | - | - | - |
| 1777662006 | 5° C | 65% | 864.8 hPa | 0 mm | - | - | - |
| 1777661707 | 5° C | 65% | 864.7 hPa | 0 mm | - | - | - |
| 1777661406 | 5° C | 64% | 864.7 hPa | 0 mm | - | - | - |
| 1777661107 | 5° C | 64% | 864.7 hPa | 0 mm | - | - | - |
| 1777660806 | 5° C | 63% | 864.5 hPa | 0 mm | - | - | - |
| 1777660507 | 5° C | 63% | 864.5 hPa | 0 mm | - | - | - |
| 1777660206 | 5.56° C | 63% | 864.5 hPa | 0 mm | - | - | - |
| 1777659907 | 5.56° C | 62% | 864.5 hPa | 0 mm | - | - | - |
| 1777659606 | 5.56° C | 62% | 864.5 hPa | 0 mm | - | - | - |
| 1777659306 | 6.11° C | 62% | 864.2 hPa | 0 mm | - | - | - |
| 1777659007 | 6.11° C | 61% | 864.3 hPa | 0 mm | - | - | - |
| 1777658707 | 6.11° C | 61% | 864.3 hPa | 0 mm | - | - | - |
| 1777658406 | 6.67° C | 60% | 864.2 hPa | 0 mm | - | - | - |
| 1777658107 | 6.67° C | 60% | 864.3 hPa | 0 mm | - | - | - |
| 1777657807 | 7.22° C | 60% | 864.3 hPa | 0 mm | - | - | - |
| 1777657507 | 7.22° C | 60% | 864.1 hPa | 0 mm | - | - | - |
| 1777657207 | 7.22° C | 60% | 864.1 hPa | 0 mm | - | - | - |
| 1777656907 | 7.78° C | 59% | 864.2 hPa | 0 mm | - | - | - |
| 1777656607 | 7.78° C | 59% | 864.1 hPa | 0 mm | - | - | - |
| 1777656307 | 7.78° C | 59% | 864.2 hPa | 0 mm | - | - | - |
* Rain latest hour (hover to see other rain measurements)
** Current wind speed in m/s (hover to see current wind gust speed)